STARLINK-1821 (46718 NORAD) Tracking and Keplerian Element Data

This shows tracking and keplerian element data for the satellite.

Feedback or suggestion? Click here.




ElementValue
Catalog46718
NameSTARLINK-1821
Epoch Orbit184
Epoch Day327.91667824
Epoch Year2020
RAAN295.5171
Inclination53.0569
Eccentricity0.0001139
Argument of Perigee88.4091
Mean Anonmoly214.7295
Mean Motion15.45790253
Decay Rate-0.01076651
L11 46718U 20073BA 20327.91667824 -.01076651 00000-0 -24160-1 0 9997
L22 46718 53.0569 295.5171 0001139 88.4091 214.7295 15.45790253 1844

Live tracking and technical data element details for STARLINK-1821 (NORAD 46718). STARLINK-1821 can be tracked NOW for your location showing map with azimuth and elevation plus other details from your city location.

Track the satellite on the map from your city or location and see movement details for azimuth, elevation, latitude, longitude, range, height, and movement on the map or in text.







IsCatalogInMostPopularTable: catalog: 46718, numindb: 11
Update: records affected: 1



GetName: 46718 STARLINK-1821

Hit Count: updated at: Tue, 24 Nov 2020 12:25:04 GMT